Regional Weather Roundup
Issued by NWS Charleston, SC

Current Version | Previous Version | Text Only | Print | Product List | Glossary Off
Versions: 1 2 3 4 5 6 7 8 9 10 11 12 13 14 15 16 17 18 19 20 21 22 23 24 25 26 27 28 29 30 31 32 33 34 35 36 37 38 39 40 41 42 43 44 45 46 47 48 49 50

438
ASUS42 KCHS 281913
RWRCHS

REGIONAL WEATHER ROUNDUP
NATIONAL WEATHER SERVICE CHARLESTON SC
300 PM EDT THU JUL 28 2016

NOTE: "FAIR" INDICATES FEW OR NO CLOUDS BELOW 12,000 FEET WITH NO
SIGNIFICANT WEATHER AND/OR OBSTRUCTIONS TO VISIBILITY.

NOT ALL STATIONS ARE QUALITY CONTROLLED. USE DATA WITH CAUTION...
ESPECIALLY DEWPOINT OBSERVATIONS.

SCZ027-030-031-034>040-042>050-282000-
...SOUTHEAST SOUTH CAROLINA...

CITY           SKY/WX    TMP DP  RH WIND       PRES   REMARKS
N CHARLESTON   MOSUNNY   97  71  42 W13G22    29.96F HX 104
WATERFRONT PRK   N/A     93  72  50 SW6       29.95F HX 101
MOUNT PLEASANT FAIR      93  77  59 SW9       29.96F HX 107
JOHNS ISLAND   FAIR      93  79  62 S15       29.97S HX 110
PINOPOLIS        N/A     91  73  55 W9        29.88F HX 100
MONCKS CORNER  FAIR      93  64  38 SW10G17   29.95F HX  95
SUMMERVILLE    NOT AVBL
BEAUFORT MCAS  PTSUNNY   98  68  37 SW14      29.97F HX 103
BEAUFORT ARPT  FAIR      97  68  38 W8        29.97F HX 101
HILTON HEAD IS NOT AVBL
WALTERBORO     PTCLDY    97  63  32 SW13G18   29.97F HX  98
ALLENDALE      FAIR      97  68  38 SW8G15    29.96  HX 101

...SOUTHERN MIDLANDS AND PEE DEE...

CITY           SKY/WX    TMP DP  RH WIND       PRES   REMARKS
GEORGETOWN     MOCLDY    91  72  52 SW9G18    29.96  HX  98
KINGSTREE      FAIR      97  68  38 SW10G16   29.93F HX 101
ORANGEBURG     SUNNY     97  67  37 W14G24    29.95F HX 101
BARNWELL       NOT AVBL
AIKEN          FAIR      95  64  36 SW20G25   29.99F HX  97
MANNING        FAIR      93  70  46 S15G22    29.94F HX  99
COLUMBIA       MOSUNNY  100  65  31 SW16G23   29.92F HX 103
SUMTER         MOSUNNY   97  69  40 SW13G22   29.91  HX 103
FLORENCE       MOSUNNY   96  70  42 SW18      29.92F HX 102
MYRTLE BEACH   MOSUNNY   97  70  41 SW14      29.95F HX 103
N MYRTLE BEACH MOSUNNY   92  76  59 S14G21    29.93F HX 104

$$

GAZ063-065-086>088-099>101-113>116-118-119-134>141-150-282000-
...SOUTHEAST GEORGIA...

CITY           SKY/WX    TMP DP  RH WIND       PRES   REMARKS
SAVANNAH ARPT  MOSUNNY   98  66  34 SW9G18    29.98F HX 101
HUNTER AAF     NOT AVBL
FORT STEWART   NOT AVBL
STATESBORO     MOSUNNY   96  70  42 W8G17     29.98F HX 103
SYLVANIA       NOT AVBL
CLAXTON        FAIR      98  68  38 SW12G21   29.98F HX 103

...CSRA...CENTRAL AND FAR SOUTHEAST GEORGIA...

CITY           SKY/WX    TMP DP  RH WIND       PRES   REMARKS
THOMSON        NOT AVBL
AUGUSTA-BUSH   SUNNY     99  64  31 W16G24    29.94F HX 101
AUGUSTA-DANIEL SUNNY     96  66  37 W10G20    29.97F HX  99
SWAINSBORO     FAIR      95  64  36 W12G25    29.99F HX  97
VIDALIA        SUNNY     99  63  30 W12G23    29.99F HX 100
EASTMAN        FAIR      96  41  15 W12G22    30.03F HX  92
HAZLEHURST     FAIR      98  67  35 CALM      29.99F HX 102
ALMA           SUNNY     97  64  33 W12G20    30.01F HX  99
WAYCROSS       MOSUNNY  102  68  33 W12G20    30.01F HX 107
JESUP          FAIR      99  72  41 NW8G18    30.00F HX 107
BAXLEY         FAIR      97  70  41 SW8G16    30.00F HX 103
BRUNSWICK      PTSUNNY   97  72  44 SW6       30.00F HX 105
SAINT SIMONS   PTSUNNY   93  76  57 SE15      30.00F HX 105

$$

SCZ027-028-034-036>038-045-046-048>050-GAZ119-141-282000-
...LAKE AND SUPPLEMENTAL COASTAL OBSERVATIONS...

STATION/POSITION TIME  TEMP    WIND        PRES    WAVE   SWELL
                       AIR SEA DIR/SP/G            HT/PER HT/PER/DIR
                 (UTC) (F)     (DEG/KT/KT) (MB)    (FT/S) (FT/S/D)
WINYAH BAY       NOT AVBL
LAKE MURRAY      1800   92     230/ 12/ 19 1013.2F
ACE BASIN NERRS  NOT AVBL
FORT PULASKI     1800   93 87  260/  7/ 13 1016.2F
SAPELO ISLAND    1800   95     210/  7     1016.0F

$$

ANZ835-935-AMZ111-154-330-350-352-354-370-450-454-472-282000-
...C-MAN AND BUOY OBSERVATIONS...

STATION/POSITION TIME  TEMP    WIND        PRES    WAVE   SWELL
                       AIR SEA DIR/SP/G            HT/PER HT/PER/DIR
                 (UTC) (F)     (DEG/KT/KT) (MB)    (FT/S) (FT/S/D)
BUOY 41004       1850   86 87  210/ 10/ 10 1014.9F   3/ 6   3/220/ 6
BUOY 41008       1750   86 88  160/  8/ 10 1016.5    2/ 8   2/ 70/ 8
FOLLY BEACH CMAN 1900   88     200/ 15/ 18 1015.1F
CAPERS NEARSHORE 1808   86 85  190/ 12/ 16 1014.9F
FRIPP NEARSHORE  1808   87 88  190/ 10/ 12 1015.2F


STATION/POSITION TIME  TEMP    WIND        PRES    WAVE   SWELL
                       AIR SEA DIR/SP/G            HT/PER HT/PER/DIR
                 (UTC) (F)     (DEG/KT/KT) (MB)    (FT/S) (FT/S/D)
5E ST. MARYS GA  1901      87                N/A     1/ 8
FRYING PAN BUOY  1800   85 85  240/ 12/ 14 1014.4F
BUOY 41025       1850   85 86  220/ 16/ 17 1012.3F   2/ 6   2/140/ 8
CAPE LOOKOUT NC  1900   89     210/  9/ 11 1012.3F
BUOY 41002       1850   84 85  270/  8/ 10 1015.7F   3/ 6   3/260/ 6
BUOY 41010       1820   86 87  260/  8/ 10 1018.2F
ST AUGUSTINE FL  1900   85 86   80/ 10/ 11 1017.7F


$$




USA.gov is the U.S. government's official web portal to all federal, state and local government web resources and services.